SCP
0 0 0 0 0 0 0 0 0 0 0 0 0 0 0 0 0 0 1 0 0 0 0 1 1 1 1 1 2 1 1 1 1 1 1 0 0 0 0 0 0 0 -0
0 0 0 0 0 0 0 0 0 0 0 0 0 0 0 0 0 0 0 0 0 0 0 0 0 1 1 1 2 1 1 1 0 0 1 1 0 0 0 0 0 0 0
0 0 0 0 0 0 0 0 0 0 0 0 0 0 0 0 0 0 0 0 0 0 0 0 0 0 1 1 1 1 2 1 1 1 0 0 0 1 0 0 0 0 0
0 0 0 0 0 0 0 0 0 0 0 0 0 0 0 0 0 0 0 0 0 0 0 0 0 0 0 0 0 1 1 1 1 1 1 0 0 0 0 0 0 0 0
0 0 0 0 0 0 0 0 0 0 0 0 0 0 0 0 0 0 0 0 0 0 0 0 0 0 0 0 0 0 0 0 1 0 1 1 1 0 0 0 0 0 0
0 0 0 0 0 0 0 0 0 0 0 0 0 0 0 0 0 0 0 0 0 0 0 0 0 0 0 0 0 0 0 0 0 0 0 0 0 1 0 0 0 0 0
0 0 0 0 0 0 0 0 0 0 0 0 0 0 0 0 0 0 0 0 0 0 0 0 0 0 0 0 0 0 0 0 0 0 0 0 0 0 0 0 0 0 0
0 0 0 0 0 0 0 0 0 0 0 0 0 0 0 0 0 0 0 0 0 0 0 0 0 0 0 0 0 0 0 0 0 0 0 0 0 0 0 0 1 0 0
0 0 0 0 0 0 0 0 0 0 0 0 0 0 0 0 0 0 0 0 0 0 0 0 0 0 0 0 0 0 0 0 0 0 0 0 0 0 0 0 0 0 1
0 0 0 0 0 0 0 0 0 -0 0 0 0 0 0 0 0 0 0 0 0 0 0 0 0 0 0 0 0 0 0 0 0 0 0 0 0 0 0 0 0 1 1
0 0 0 0 0 0 0 0 0 -0 0 0 0 0 0 0 0 0 0 0 0 0 0 0 0 0 0 0 0 0 0 0 0 0 0 0 0 0 0 0 0 0 0
0 0 0 0 0 0 0 0 0 0 0 0 0 0 0 0 0 0 0 0 0 0 0 0 0 0 0 0 0 0 0 0 0 0 0 0 0 0 0 0 0 0 0
0 0 0 0 0 0 0 0 0 0 0 0 0 0 0 0 0 0 0 0 0 0 0 0 0 0 0 0 0 0 0 0 0 0 0 0 0 0 0 0 0 0 0
0 0 0 0 0 0 0 0 0 0 0 0 0 0 0 0 0 0 0 0 0 0 0 0 0 0 0 0 0 0 0 0 0 0 0 0 0 0 0 0 0 0 0
0 0 0 0 0 0 0 0 0 0 0 0 0 0 0 0 0 0 0 0 0 0 0 0 0 0 0 0 0 0 0 0 0 0 0 0 0 0 0 0 0 0 0
0 0 0 0 0 0 0 0 0 0 0 0 0 0 0 0 0 0 0 0 0 0 0 0 0 0 0 0 0 0 0 0 0 0 0 0 0 0 0 0 0 0 0
0 0 0 0 0 0 0 0 0 0 0 0 0 0 0 0 0 0 0 0 0 0 0 0 0 0 0 0 0 0 0 0 0 0 0 0 0 0 0 0 0 0 0
0 0 0 0 0 0 0 0 0 0 0 0 0 0 0 0 0 0 0 0 0 0 0 0 0 0 0 0 0 0 0 0 0 0 0 0 0 0 0 0 0 0 0
0 0 0 0 0 0 0 0 0 0 0 0 0 0 0 0 0 0 0 0 0 0 0 0 0 0 0 0 0 0 0 0 0 0 0 0 0 0 0 0 0 0 0
0 0 0 0 0 0 0 0 0 0 0 0 0 0 0 0 0 0 0 0 0 0 0 0 0 0 0 0 0 0 0 0 0 0 0 0 0 0 0 0 0 0 0
0 0 0 0 0 0 0 0 0 0 0 0 0 0 0 0 0 0 0 0 0 0 0 0 0 0 0 0 0 0 0 0 0 0 0 0 0 0 0 -0 0 0 0
0 0 0 0 0 0 0 0 0 0 0 0 0 0 0 0 0 0 0 0 0 0 0 0 0 0 0 0 0 0 0 0 0 0 0 0 0 0 0 -0 0 0 0
0 0 0 0 0 0 0 0 0 0 0 0 0 0 0 0 0 0 0 0 0 0 0 0 0 0 0 -0 0 0 0 0 0 -0 0 0 0 0 0 0 0 -0 0
0 0 0 0 0 0 0 0 0 0 0 0 0 0 0 0 0 0 0 0 0 0 0 0 0 0 0 0 0 -0 -0 -0 -0 -0 0 0 0 -0 0 0 0 -0 0
0 0 0 0 0 0 0 0 -0 0 0 0 0 0 0 0 0 0 0 0 0 0 0 0 0 0 0 0 0 0 -0 -0 -0 -0 0 -0 0 0 0 0 0 -0 0
0 0 0 0 0 0 0 0 0 0 0 0 0 0 0 0 0 0 0 0 0 0 0 0 0 0 0 0 0 0 -0 -0 -0 -0 -0 -0 0 -0 0 0 0 0 0
Wind_Speed_500mb
6 6 15 12 13 15 18 19 21 24 23 23 21 20 18 16 15 14 17 36 33 32 34 36 36 35 34 33 35 35 36 41 39 36 37 37 34 34 34 32 26 25 29
9 6 9 10 14 16 19 20 21 23 23 21 20 19 18 17 18 17 14 19 32 24 26 28 29 32 36 36 35 36 39 41 43 41 42 43 39 37 37 36 33 29 30
9 1 6 11 14 19 19 22 22 23 22 20 19 17 15 19 21 22 21 19 20 32 26 25 26 25 26 28 33 36 37 40 41 41 42 46 46 44 42 39 36 35 34
4 9 12 13 17 19 21 22 25 24 24 20 17 15 13 15 18 22 23 23 24 23 26 29 27 29 30 26 27 25 30 35 39 41 41 44 47 49 50 48 46 44 42
11 14 13 15 20 20 23 24 24 26 26 22 16 12 11 13 17 19 24 26 29 26 24 30 33 35 29 28 28 28 27 29 30 33 35 39 44 50 53 50 51 49 48
17 16 15 18 20 20 23 25 28 26 28 26 17 12 11 14 18 20 23 24 27 27 26 28 25 26 35 29 28 28 27 28 28 28 33 33 35 37 40 43 48 49 50
17 17 15 18 19 21 26 31 23 28 28 31 22 18 11 10 19 16 21 24 28 26 27 27 26 27 26 32 36 31 30 30 31 30 28 32 33 29 33 38 42 42 45
18 17 15 17 16 18 27 33 36 26 25 28 26 15 14 10 20 18 23 26 31 26 26 25 26 28 28 25 31 41 32 33 33 35 35 32 32 36 39 34 35 39 38
20 17 16 14 18 16 20 29 32 31 23 24 25 21 17 22 33 20 24 27 32 30 27 24 25 26 29 26 27 33 35 36 37 36 36 37 35 34 35 40 45 43 40
19 15 13 14 17 14 25 26 32 27 24 20 18 18 17 21 28 30 30 28 33 30 29 26 24 25 30 26 26 35 35 34 35 36 37 37 38 37 35 37 37 44 48
17 12 9 11 17 12 23 28 26 29 19 17 17 18 22 22 22 29 40 37 29 28 29 22 25 24 29 27 25 33 34 35 36 36 34 34 36 38 38 36 35 37 42
15 12 7 7 15 19 22 18 28 21 18 13 12 18 21 25 28 31 35 38 36 32 26 24 19 20 27 28 30 38 36 33 35 37 37 34 32 34 37 37 36 35 37
18 15 9 5 10 18 22 23 16 16 14 11 15 15 17 21 25 27 31 34 38 32 26 22 29 32 24 29 32 42 39 42 36 37 35 37 37 34 34 36 35 34 33
21 19 10 3 9 16 20 22 14 12 13 9 13 15 16 20 22 24 27 32 37 33 28 25 25 27 31 34 39 47 40 47 46 47 42 38 37 39 38 35 33 33 33
23 18 11 6 9 14 22 21 12 11 11 11 13 17 17 19 22 21 23 24 27 35 38 32 37 33 37 38 40 43 45 46 48 52 52 47 43 40 41 44 40 37 34
25 20 13 11 13 19 20 21 10 13 11 10 12 17 18 19 18 20 21 23 25 27 38 38 41 43 43 46 42 45 45 48 45 47 57 51 51 46 41 41 47 45 39
28 19 12 10 9 14 15 12 10 9 10 12 13 15 18 21 22 22 23 22 24 25 36 41 41 42 46 45 48 46 44 43 41 44 51 58 51 50 46 41 40 43 37
27 20 13 4 6 10 10 7 6 7 9 10 13 15 19 21 20 20 20 26 24 30 35 40 38 38 37 41 42 48 44 40 42 40 55 49 55 47 46 44 42 45 46
29 20 13 8 15 8 6 7 6 8 10 13 15 16 18 21 18 17 21 21 24 29 30 36 38 37 38 35 42 39 40 43 40 44 45 42 51 46 44 44 42 42 43
30 18 13 13 14 3 2 4 6 9 10 12 12 12 13 14 15 18 20 24 28 28 30 34 36 37 38 40 41 45 46 40 43 42 41 42 48 44 43 43 39 39 44
34 19 11 7 5 5 3 4 7 8 8 9 10 11 9 14 18 20 20 23 25 27 30 33 36 34 36 43 42 43 44 48 41 41 41 42 38 36 29 39 30 38 39
31 17 12 6 8 10 3 5 6 6 8 8 8 11 12 17 19 27 24 24 27 25 26 28 33 34 38 44 39 39 43 45 49 45 46 42 36 35 33 40 29 42 42
28 18 11 18 14 5 2 6 6 6 6 7 11 11 11 15 23 27 27 27 25 30 30 29 30 36 40 38 40 42 44 45 49 47 42 45 41 43 34 39 37 36 34
25 15 21 19 16 6 4 5 5 7 3 7 9 9 13 18 28 33 27 24 22 20 23 26 29 32 29 32 32 38 38 37 41 40 32 48 39 48 39 33 24 28 28
27 26 25 22 19 9 8 9 13 6 0 4 4 6 12 18 30 32 23 23 22 21 23 32 27 29 32 30 35 37 35 38 39 40 41 42 41 44 30 28 34 41 27
30 28 26 22 20 12 12 9 12 6 2 1 6 13 22 27 31 31 22 22 23 28 27 30 27 26 27 26 31 31 34 34 36 36 41 41 40 47 31 21 39 32 30
Wind_Direction_500mb
283 329 327 356 13 15 13 9 1 357 355 353 350 352 351 345 342 322 303 315 311 304 296 290 287 285 284 278 276 271 269 270 273 276 278 273 270 273 274 274 271 267 252
288 334 5 32 28 30 21 21 11 8 3 4 2 15 14 16 13 19 357 336 340 334 325 316 307 297 286 281 275 272 273 272 271 278 275 268 264 266 268 269 269 269 266
277 337 57 55 45 36 32 23 22 13 11 11 11 10 13 10 9 13 7 355 352 347 338 341 339 328 318 302 287 279 276 277 274 277 279 274 267 263 263 263 266 265 265
179 99 85 67 56 47 38 28 25 20 15 12 2 5 9 5 11 14 9 10 8 3 351 334 341 337 332 323 314 308 290 283 274 273 270 270 271 269 268 261 255 258 258
136 112 95 74 66 54 44 41 29 27 18 11 356 349 359 9 6 2 9 8 3 6 1 352 355 342 332 332 326 320 312 304 291 282 277 274 273 272 268 264 255 253 258
140 121 102 84 76 65 47 33 27 26 20 10 357 330 323 339 0 356 3 2 1 2 356 358 360 349 345 342 335 330 325 314 305 305 295 285 284 280 273 264 262 259 261
138 114 99 82 73 54 38 31 31 13 9 16 4 334 298 318 358 351 353 355 359 356 353 356 354 351 350 357 340 337 333 329 325 315 305 298 289 283 278 270 268 267 266
140 130 113 95 84 50 34 26 22 22 7 5 10 343 328 298 324 317 341 344 346 349 346 345 347 352 353 352 351 333 334 331 328 324 318 311 301 289 279 278 273 273 269
152 136 111 91 64 63 39 32 25 14 10 4 10 14 354 338 326 318 335 336 343 342 338 341 337 346 349 353 353 335 338 329 326 325 323 318 312 301 297 283 275 270 270
154 137 111 79 72 49 34 22 15 21 14 359 359 357 351 331 333 323 331 331 337 338 338 338 331 335 343 344 350 337 341 337 329 323 320 318 316 312 301 294 288 275 268
162 151 117 75 47 43 6 14 19 12 3 4 347 343 339 336 327 325 323 331 335 336 334 337 334 334 337 341 339 338 340 338 336 332 326 320 314 312 308 302 294 287 277
175 173 140 67 24 8 356 1 8 347 356 357 353 340 335 334 330 327 324 326 330 335 337 327 320 332 337 339 336 327 338 334 333 330 331 328 319 311 308 307 300 295 288
187 192 164 78 9 348 346 351 357 359 351 346 344 344 330 326 326 325 324 325 326 331 335 339 336 330 325 330 331 328 342 325 328 324 318 321 322 317 308 306 307 297 295
191 199 186 235 343 345 340 346 347 344 333 331 336 336 340 325 330 326 325 325 323 322 325 331 327 344 339 322 327 319 325 319 322 318 314 308 305 306 311 306 305 305 297
197 193 201 254 311 334 341 356 329 338 341 344 338 329 340 327 329 334 329 318 322 317 318 325 324 323 321 319 318 318 319 316 314 314 308 305 302 295 294 296 300 301 299
189 199 214 269 299 326 343 1 347 327 334 333 336 327 331 323 337 327 325 324 320 312 309 315 315 317 317 318 318 319 315 327 319 318 310 305 296 295 293 293 290 293 292
204 210 229 265 302 336 348 357 1 354 341 337 337 333 333 335 325 326 324 320 314 318 311 313 314 314 319 321 321 322 326 320 317 311 311 309 305 293 289 288 288 290 293
201 200 236 219 332 342 354 12 9 351 348 337 331 336 330 326 328 330 322 323 322 320 315 316 323 325 324 324 325 328 326 322 315 317 309 322 317 305 288 280 280 284 289
208 215 245 277 314 316 2 4 11 354 344 328 327 336 340 342 339 333 335 331 332 326 325 321 321 326 327 330 328 325 325 323 321 317 319 311 311 316 315 284 276 275 284
218 218 248 282 301 299 356 49 0 343 334 318 334 345 355 352 349 346 342 342 332 334 328 324 324 326 332 335 328 331 331 328 324 323 320 314 319 323 327 319 279 280 275
216 226 229 267 203 132 131 6 3 358 4 357 7 20 360 16 7 352 347 334 336 328 325 322 323 327 334 336 333 333 334 336 333 331 322 323 322 316 318 318 306 279 275
207 207 201 190 159 171 332 5 61 55 59 45 28 16 18 4 359 352 345 342 345 335 328 324 322 329 329 330 332 335 336 338 337 340 331 328 324 322 315 319 309 288 283
188 202 201 155 160 216 59 63 80 102 72 35 35 28 27 352 357 345 332 338 331 327 327 328 323 320 320 324 327 335 332 334 335 339 335 333 336 332 329 314 318 299 285
190 188 166 160 158 179 122 100 113 105 54 59 42 31 17 4 345 348 348 337 335 338 318 319 316 319 322 325 326 328 324 334 338 341 342 343 329 328 331 326 311 321 298
172 158 162 161 159 174 168 132 106 105 318 72 30 9 15 360 352 352 0 344 344 335 338 329 344 346 348 344 344 344 341 336 340 348 356 348 349 338 331 331 3 8 336
160 158 157 158 165 170 167 143 119 145 121 88 11 331 333 345 351 355 2 351 346 337 342 340 337 336 337 336 340 345 339 336 343 350 352 358 358 359 345 345 357 20 18
Wind_Speed_850mb
6 6 15 12 13 15 18 19 21 24 23 23 21 20 18 16 15 14 17 36 33 32 34 36 36 35 34 33 35 35 36 41 39 36 37 37 34 34 34 32 26 25 29
9 6 9 10 14 16 19 20 21 23 23 21 20 19 18 17 18 17 14 19 32 24 26 28 29 32 36 36 35 36 39 41 43 41 42 43 39 37 37 36 33 29 30
9 1 6 11 14 19 19 22 22 23 22 20 19 17 15 19 21 22 21 19 20 32 26 25 26 25 26 28 33 36 37 40 41 41 42 46 46 44 42 39 36 35 34
4 9 12 13 17 19 21 22 25 24 24 20 17 15 13 15 18 22 23 23 24 23 26 29 27 29 30 26 27 25 30 35 39 41 41 44 47 49 50 48 46 44 42
11 14 13 15 20 20 23 24 24 26 26 22 16 12 11 13 17 19 24 26 29 26 24 30 33 35 29 28 28 28 27 29 30 33 35 39 44 50 53 50 51 49 48
17 16 15 18 20 20 23 25 28 26 28 26 17 12 11 14 18 20 23 24 27 27 26 28 25 26 35 29 28 28 27 28 28 28 33 33 35 37 40 43 48 49 50
17 17 15 18 19 21 26 31 23 28 28 31 22 18 11 10 19 16 21 24 28 26 27 27 26 27 26 32 36 31 30 30 31 30 28 32 33 29 33 38 42 42 45
18 17 15 17 16 18 27 33 36 26 25 28 26 15 14 10 20 18 23 26 31 26 26 25 26 28 28 25 31 41 32 33 33 35 35 32 32 36 39 34 35 39 38
20 17 16 14 18 16 20 29 32 31 23 24 25 21 17 22 33 20 24 27 32 30 27 24 25 26 29 26 27 33 35 36 37 36 36 37 35 34 35 40 45 43 40
19 15 13 14 17 14 25 26 32 27 24 20 18 18 17 21 28 30 30 28 33 30 29 26 24 25 30 26 26 35 35 34 35 36 37 37 38 37 35 37 37 44 48
17 12 9 11 17 12 23 28 26 29 19 17 17 18 22 22 22 29 40 37 29 28 29 22 25 24 29 27 25 33 34 35 36 36 34 34 36 38 38 36 35 37 42
15 12 7 7 15 19 22 18 28 21 18 13 12 18 21 25 28 31 35 38 36 32 26 24 19 20 27 28 30 38 36 33 35 37 37 34 32 34 37 37 36 35 37
18 15 9 5 10 18 22 23 16 16 14 11 15 15 17 21 25 27 31 34 38 32 26 22 29 32 24 29 32 42 39 42 36 37 35 37 37 34 34 36 35 34 33
21 19 10 3 9 16 20 22 14 12 13 9 13 15 16 20 22 24 27 32 37 33 28 25 25 27 31 34 39 47 40 47 46 47 42 38 37 39 38 35 33 33 33
23 18 11 6 9 14 22 21 12 11 11 11 13 17 17 19 22 21 23 24 27 35 38 32 37 33 37 38 40 43 45 46 48 52 52 47 43 40 41 44 40 37 34
25 20 13 11 13 19 20 21 10 13 11 10 12 17 18 19 18 20 21 23 25 27 38 38 41 43 43 46 42 45 45 48 45 47 57 51 51 46 41 41 47 45 39
28 19 12 10 9 14 15 12 10 9 10 12 13 15 18 21 22 22 23 22 24 25 36 41 41 42 46 45 48 46 44 43 41 44 51 58 51 50 46 41 40 43 37
27 20 13 4 6 10 10 7 6 7 9 10 13 15 19 21 20 20 20 26 24 30 35 40 38 38 37 41 42 48 44 40 42 40 55 49 55 47 46 44 42 45 46
29 20 13 8 15 8 6 7 6 8 10 13 15 16 18 21 18 17 21 21 24 29 30 36 38 37 38 35 42 39 40 43 40 44 45 42 51 46 44 44 42 42 43
30 18 13 13 14 3 2 4 6 9 10 12 12 12 13 14 15 18 20 24 28 28 30 34 36 37 38 40 41 45 46 40 43 42 41 42 48 44 43 43 39 39 44
34 19 11 7 5 5 3 4 7 8 8 9 10 11 9 14 18 20 20 23 25 27 30 33 36 34 36 43 42 43 44 48 41 41 41 42 38 36 29 39 30 38 39
31 17 12 6 8 10 3 5 6 6 8 8 8 11 12 17 19 27 24 24 27 25 26 28 33 34 38 44 39 39 43 45 49 45 46 42 36 35 33 40 29 42 42
28 18 11 18 14 5 2 6 6 6 6 7 11 11 11 15 23 27 27 27 25 30 30 29 30 36 40 38 40 42 44 45 49 47 42 45 41 43 34 39 37 36 34
25 15 21 19 16 6 4 5 5 7 3 7 9 9 13 18 28 33 27 24 22 20 23 26 29 32 29 32 32 38 38 37 41 40 32 48 39 48 39 33 24 28 28
27 26 25 22 19 9 8 9 13 6 0 4 4 6 12 18 30 32 23 23 22 21 23 32 27 29 32 30 35 37 35 38 39 40 41 42 41 44 30 28 34 41 27
30 28 26 22 20 12 12 9 12 6 2 1 6 13 22 27 31 31 22 22 23 28 27 30 27 26 27 26 31 31 34 34 36 36 41 41 40 47 31 21 39 32 30
Wind_Direction_850mb
283 329 327 356 13 15 13 9 1 357 355 353 350 352 351 345 342 322 303 315 311 304 296 290 287 285 284 278 276 271 269 270 273 276 278 273 270 273 274 274 271 267 252
288 334 5 32 28 30 21 21 11 8 3 4 2 15 14 16 13 19 357 336 340 334 325 316 307 297 286 281 275 272 273 272 271 278 275 268 264 266 268 269 269 269 266
277 337 57 55 45 36 32 23 22 13 11 11 11 10 13 10 9 13 7 355 352 347 338 341 339 328 318 302 287 279 276 277 274 277 279 274 267 263 263 263 266 265 265
179 99 85 67 56 47 38 28 25 20 15 12 2 5 9 5 11 14 9 10 8 3 351 334 341 337 332 323 314 308 290 283 274 273 270 270 271 269 268 261 255 258 258
136 112 95 74 66 54 44 41 29 27 18 11 356 349 359 9 6 2 9 8 3 6 1 352 355 342 332 332 326 320 312 304 291 282 277 274 273 272 268 264 255 253 258
140 121 102 84 76 65 47 33 27 26 20 10 357 330 323 339 0 356 3 2 1 2 356 358 360 349 345 342 335 330 325 314 305 305 295 285 284 280 273 264 262 259 261
138 114 99 82 73 54 38 31 31 13 9 16 4 334 298 318 358 351 353 355 359 356 353 356 354 351 350 357 340 337 333 329 325 315 305 298 289 283 278 270 268 267 266
140 130 113 95 84 50 34 26 22 22 7 5 10 343 328 298 324 317 341 344 346 349 346 345 347 352 353 352 351 333 334 331 328 324 318 311 301 289 279 278 273 273 269
152 136 111 91 64 63 39 32 25 14 10 4 10 14 354 338 326 318 335 336 343 342 338 341 337 346 349 353 353 335 338 329 326 325 323 318 312 301 297 283 275 270 270
154 137 111 79 72 49 34 22 15 21 14 359 359 357 351 331 333 323 331 331 337 338 338 338 331 335 343 344 350 337 341 337 329 323 320 318 316 312 301 294 288 275 268
162 151 117 75 47 43 6 14 19 12 3 4 347 343 339 336 327 325 323 331 335 336 334 337 334 334 337 341 339 338 340 338 336 332 326 320 314 312 308 302 294 287 277
175 173 140 67 24 8 356 1 8 347 356 357 353 340 335 334 330 327 324 326 330 335 337 327 320 332 337 339 336 327 338 334 333 330 331 328 319 311 308 307 300 295 288
187 192 164 78 9 348 346 351 357 359 351 346 344 344 330 326 326 325 324 325 326 331 335 339 336 330 325 330 331 328 342 325 328 324 318 321 322 317 308 306 307 297 295
191 199 186 235 343 345 340 346 347 344 333 331 336 336 340 325 330 326 325 325 323 322 325 331 327 344 339 322 327 319 325 319 322 318 314 308 305 306 311 306 305 305 297
197 193 201 254 311 334 341 356 329 338 341 344 338 329 340 327 329 334 329 318 322 317 318 325 324 323 321 319 318 318 319 316 314 314 308 305 302 295 294 296 300 301 299
189 199 214 269 299 326 343 1 347 327 334 333 336 327 331 323 337 327 325 324 320 312 309 315 315 317 317 318 318 319 315 327 319 318 310 305 296 295 293 293 290 293 292
204 210 229 265 302 336 348 357 1 354 341 337 337 333 333 335 325 326 324 320 314 318 311 313 314 314 319 321 321 322 326 320 317 311 311 309 305 293 289 288 288 290 293
201 200 236 219 332 342 354 12 9 351 348 337 331 336 330 326 328 330 322 323 322 320 315 316 323 325 324 324 325 328 326 322 315 317 309 322 317 305 288 280 280 284 289
208 215 245 277 314 316 2 4 11 354 344 328 327 336 340 342 339 333 335 331 332 326 325 321 321 326 327 330 328 325 325 323 321 317 319 311 311 316 315 284 276 275 284
218 218 248 282 301 299 356 49 0 343 334 318 334 345 355 352 349 346 342 342 332 334 328 324 324 326 332 335 328 331 331 328 324 323 320 314 319 323 327 319 279 280 275
216 226 229 267 203 132 131 6 3 358 4 357 7 20 360 16 7 352 347 334 336 328 325 322 323 327 334 336 333 333 334 336 333 331 322 323 322 316 318 318 306 279 275
207 207 201 190 159 171 332 5 61 55 59 45 28 16 18 4 359 352 345 342 345 335 328 324 322 329 329 330 332 335 336 338 337 340 331 328 324 322 315 319 309 288 283
188 202 201 155 160 216 59 63 80 102 72 35 35 28 27 352 357 345 332 338 331 327 327 328 323 320 320 324 327 335 332 334 335 339 335 333 336 332 329 314 318 299 285
190 188 166 160 158 179 122 100 113 105 54 59 42 31 17 4 345 348 348 337 335 338 318 319 316 319 322 325 326 328 324 334 338 341 342 343 329 328 331 326 311 321 298
172 158 162 161 159 174 168 132 106 105 318 72 30 9 15 360 352 352 0 344 344 335 338 329 344 346 348 344 344 344 341 336 340 348 356 348 349 338 331 331 3 8 336
160 158 157 158 165 170 167 143 119 145 121 88 11 331 333 345 351 355 2 351 346 337 342 340 337 336 337 336 340 345 339 336 343 350 352 358 358 359 345 345 357 20 18